,,Stat5,,Stat1,,Stat2,,Stat3,,Stat4,,Wind1,,Wind1,
time,status,PA1M_AVG,status,PR1M_SUM,status,RH1M_AVG,status,SR1M_AVG,status,TA1M_AVG,status,W1dAve1m,status,W1sAve1m,
2002-08-27, 00:00:00,INVALID,0,VALID,0,VALID,98.4896,VALID,-0.0169808,VALID,19.5854,VALID,31,VALID,1.51863,
2002-08-27, 00:01:00,VALID,919.557,VALID,0,VALID,98.4718,VALID,-0.0339617,VALID,19.5725,VALID,30,VALID,1.54603,
2002-08-27, 00:02:00,VALID,919.545,VALID,0,VALID,98.4235,VALID,-0.0849042,VALID,19.5531,VALID,18,VALID,1.3306,
2002-08-27, 00:34:00,INVALID,0,VALID,0,VALID,98.323,VALID,-0.020377,VALID,19.3136,VALID,245,VALID,0.133789,
2002-08-27, 00:35:00,VALID,919.389,VALID,0,VALID,98.3001,VALID,-0.0339617,VALID,19.2848,VALID,239,VALID,0.163086,
2002-08-27, 00:36:00,VALID,919.393,VALID,0,VALID,98.3294,VALID,-0.0169808,VALID,19.2622,VALID,227,VALID,0.375762,
2002-08-27, 01:08:00,INVALID,0,VALID,0,VALID,98.8838,VALID,-0.040754,VALID,19.1328,VALID,21,VALID,1.31494,
2002-08-27, 01:09:00,VALID,919.118,VALID,0,VALID,98.8596,VALID,-0.0509425,VALID,19.1464,VALID,18,VALID,1.40293,
2002-08-27, 01:10:00,VALID,919.116,VALID,0,VALID,98.7999,VALID,-0.0509425,VALID,19.1208,VALID,8,VALID,1.66616,
2002-08-27, 01:12:00,INVALID,0,VALID,0,VALID,98.8342,VALID,0,VALID,19.088,VALID,8,VALID,0.45166,
2002-08-27, 01:13:00,VALID,919.146,VALID,0,VALID,98.8736,VALID,-0.0169808,VALID,19.0878,VALID,26,VALID,0.973047,
2002-08-27, 01:14:00,VALID,919.152,VALID,0,VALID,98.9092,VALID,0,VALID,19.1069,VALID,24,VALID,0.883814,
2002-08-27, 01:46:00,INVALID,0,VALID,0,VALID,99.0885,VALID,0.020377,VALID,18.9579,VALID,24,VALID,0.710693,
2002-08-27, 01:47:00,VALID,919.06,VALID,0,VALID,99.0911,VALID,0.0169808,VALID,18.9478,VALID,24,VALID,0.998047,
2002-08-27, 01:48:00,VALID,919.028,VALID,0,VALID,99.0949,VALID,0.0339617,VALID,18.9478,VALID,16,VALID,1.06059,
2002-08-27, 01:50:00,INVALID,0,VALID,0,VALID,99.0997,VALID,0.081508,VALID,18.936,VALID,359,VALID,0.0327148,
2002-08-27, 01:51:00,VALID,919.014,VALID,0,VALID,99.1089,VALID,0.0339617,VALID,18.9316,VALID,359,VALID,0.216211,
2002-08-27, 01:52:00,VALID,919.002,VALID,0,VALID,99.1089,VALID,0.101885,VALID,18.9346,VALID,5,VALID,0.16266,
2002-08-27, 01:54:00,INVALID,0,VALID,0,VALID,99.1348,VALID,0.020377,VALID,18.9435,VALID,17,VALID,0.741211,
2002-08-27, 01:55:00,VALID,918.946,VALID,0,VALID,99.1216,VALID,0,VALID,18.9385,VALID,14,VALID,0.965234,
2002-08-27, 01:56:00,VALID,918.917,VALID,0,VALID,99.0987,VALID,0.0339617,VALID,18.9092,VALID,30,VALID,0.81871,
2002-08-27, 01:58:00,INVALID,0,VALID,0,VALID,99.1012,VALID,0,VALID,18.8939,VALID,339,VALID,0.503174,
2002-08-27, 01:59:00,VALID,918.941,VALID,0,VALID,99.0504,VALID,0,VALID,18.8354,VALID,334,VALID,0.586133,
2002-08-27, 02:00:00,VALID,918.936,VALID,0,VALID,99.0415,VALID,0,VALID,18.8034,VALID,339,VALID,0.364984,
2002-08-27, 02:32:00,INVALID,0,VALID,0,VALID,99.2157,VALID,-0.081508,VALID,18.7204,VALID,239,VALID,0.643555,
2002-08-27, 02:33:00,VALID,918.429,VALID,0,VALID,99.2335,VALID,-0.101885,VALID,18.7179,VALID,248,VALID,0.629687,
2002-08-27, 02:34:00,VALID,918.395,VALID,0,VALID,99.2297,VALID,-0.0679233,VALID,18.7077,VALID,251,VALID,0.181593,
2002-08-27, 03:06:00,INVALID,0,VALID,0,VALID,99.3759,VALID,-0.040754,VALID,18.6595,VALID,27,VALID,0.900391,
2002-08-27, 03:07:00,VALID,918.031,VALID,0,VALID,99.3721,VALID,-0.0169808,VALID,18.6724,VALID,8,VALID,0.38457,
2002-08-27, 03:08:00,VALID,918.068,VALID,0,VALID,99.367,VALID,-0.0169808,VALID,18.6463,VALID,337,VALID,0.318216,
2002-08-27, 03:40:00,INVALID,0,VALID,0,VALID,99.3721,VALID,0.061131,VALID,18.6904,VALID,176,VALID,0.470459,
2002-08-27, 03:41:00,VALID,918.014,VALID,0,VALID,99.3708,VALID,0.0849042,VALID,18.6645,VALID,172,VALID,0.625586,
2002-08-27, 03:42:00,VALID,918.033,VALID,0,VALID,99.3606,VALID,0.0169808,VALID,18.6449,VALID,164,VALID,0.420351,
2002-08-27, 04:14:00,INVALID,0,VALID,0,VALID,99.325,VALID,0,VALID,18.5778,VALID,16,VALID,0,
2002-08-27, 04:15:00,VALID,918.06,VALID,0,VALID,99.3123,VALID,0.0339617,VALID,18.5649,VALID,16,VALID,0,
2002-08-27, 04:16:00,VALID,918.047,VALID,0,VALID,99.3174,VALID,0.0339617,VALID,18.5552,VALID,16,VALID,0,
2002-08-27, 04:18:00,INVALID,0,VALID,0,VALID,99.3377,VALID,-0.040754,VALID,18.582,VALID,16,VALID,0.182617,
2002-08-27, 04:19:00,VALID,918.074,VALID,0,VALID,99.3517,VALID,-0.0339617,VALID,18.5919,VALID,16,VALID,0.357617,
2002-08-27, 04:20:00,VALID,918.071,VALID,0,VALID,99.3517,VALID,-0.0679233,VALID,18.6175,VALID,16,VALID,0.288061,
2002-08-27, 04:52:00,INVALID,0,VALID,0,VALID,98.6358,VALID,-0.061131,VALID,18.582,VALID,9,VALID,0.137207,
2002-08-27, 04:53:00,VALID,918.257,VALID,0,VALID,98.6218,VALID,-0.0169808,VALID,18.5956,VALID,9,VALID,0.046875,
2002-08-27, 04:54:00,VALID,918.276,VALID,0,VALID,98.6218,VALID,-0.0339617,VALID,18.585,VALID,9,VALID,0,
2002-08-27, 04:56:00,INVALID,0,VALID,0,VALID,98.6435,VALID,-0.020377,VALID,18.6045,VALID,17,VALID,0.616455,
2002-08-27, 04:57:00,VALID,918.271,VALID,0,VALID,98.6435,VALID,-0.0169808,VALID,18.6014,VALID,6,VALID,0.558789,
2002-08-27, 04:58:00,VALID,918.283,VALID,0,VALID,98.6333,VALID,-0.0169808,VALID,18.6018,VALID,350,VALID,0.377604,
2002-08-27, 05:00:00,INVALID,0,VALID,0,VALID,98.6557,VALID,0.061131,VALID,18.5884,VALID,348,VALID,0,
2002-08-27, 05:01:00,VALID,918.272,VALID,0,VALID,98.6841,VALID,0.0339617,VALID,18.6037,VALID,348,VALID,0.0470703,
2002-08-27, 05:02:00,VALID,918.275,VALID,0,VALID,98.6943,VALID,0.0339617,VALID,18.6066,VALID,349,VALID,0.0791266,
2002-08-27, 05:04:00,INVALID,0,VALID,0,VALID,98.6694,VALID,-0.061131,VALID,18.6045,VALID,350,VALID,0.0341797,
2002-08-27, 05:05:00,VALID,918.313,VALID,0,VALID,98.6892,VALID,-0.0169808,VALID,18.5979,VALID,33,VALID,0.533984,
2002-08-27, 05:06:00,VALID,918.306,VALID,0,VALID,98.6969,VALID,-0.0169808,VALID,18.5981,VALID,41,VALID,0.765224,
2002-08-27, 05:08:00,INVALID,0,VALID,0,VALID,98.7014,VALID,-0.081508,VALID,18.5967,VALID,42,VALID,0.019043,
2002-08-27, 05:09:00,VALID,918.318,VALID,0,VALID,98.707,VALID,-0.0339617,VALID,18.5815,VALID,42,VALID,0.159375,
2002-08-27, 05:10:00,VALID,918.319,VALID,0,VALID,98.7312,VALID,0,VALID,18.5748,VALID,42,VALID,0,
2002-08-27, 05:42:00,INVALID,0,VALID,0,VALID,98.852,VALID,-0.081508,VALID,18.5663,VALID,26,VALID,0.229492,
2002-08-27, 05:43:00,VALID,918.327,VALID,0,VALID,98.852,VALID,-0.0849042,VALID,18.5728,VALID,345,VALID,0.109375,
2002-08-27, 05:44:00,VALID,918.336,VALID,0,VALID,98.8393,VALID,-0.0849042,VALID,18.5728,VALID,285,VALID,0.142149,
2002-08-27, 06:16:00,INVALID,0,VALID,0,VALID,98.5201,VALID,2.22109,VALID,18.5626,VALID,352,VALID,0.990723,
2002-08-27, 06:17:00,VALID,918.454,VALID,0,VALID,98.5214,VALID,2.75089,VALID,18.591,VALID,3,VALID,1.05273,
2002-08-27, 06:18:00,VALID,918.438,VALID,0,VALID,98.5188,VALID,3.53201,VALID,18.6496,VALID,8,VALID,0.893864,
2002-08-27, 06:20:00,INVALID,0,VALID,0,VALID,98.3627,VALID,4.95161,VALID,18.7049,VALID,7,VALID,1.0293,
2002-08-27, 06:21:00,VALID,918.429,VALID,0,VALID,98.3077,VALID,5.56971,VALID,18.7266,VALID,7,VALID,1.17793,
2002-08-27, 06:22:00,VALID,918.421,VALID,0,VALID,98.2531,VALID,6.41875,VALID,18.7453,VALID,8,VALID,0.979768,
2002-08-27, 06:24:00,INVALID,0,VALID,0,VALID,98.0041,VALID,9.41417,VALID,18.7681,VALID,13,VALID,0.966309,
2002-08-27, 06:25:00,VALID,918.488,VALID,0,VALID,97.9314,VALID,11.0545,VALID,18.7725,VALID,4,VALID,0.903516,
2002-08-27, 06:26:00,VALID,918.511,VALID,0,VALID,97.925,VALID,12.6847,VALID,18.7988,VALID,360,VALID,0.835136,
2002-08-27, 06:58:00,INVALID,0,VALID,0,VALID,95.9057,VALID,71.727,VALID,19.2704,VALID,16,VALID,0.944336,
2002-08-27, 06:59:00,VALID,918.644,VALID,0,VALID,95.8586,VALID,63.4743,VALID,19.3156,VALID,11,VALID,1.03574,
2002-08-27, 07:00:01,VALID,918.648,VALID,0,VALID,95.6463,VALID,66.8875,VALID,19.3444,VALID,9,VALID,1.18579,
2002-08-27, 07:01:00,VALID,918.649,VALID,0,VALID,95.4123,VALID,62.3027,VALID,19.3732,VALID,1,VALID,1.08018,
2002-08-27, 07:02:00,VALID,918.683,VALID,0,VALID,95.2254,VALID,57.9046,VALID,19.3797,VALID,356,VALID,1.01014,
2002-08-27, 07:03:00,VALID,918.703,VALID,0,VALID,95.1351,VALID,60.197,VALID,19.373,VALID,356,VALID,0.683293,
2002-08-27, 07:04:00,INVALID,0,VALID,0,VALID,96.2881,VALID,90.1852,VALID,19.3233,VALID,149,VALID,0.0412109,
2002-08-27, 07:05:00,VALID,918.5,VALID,0,VALID,96.0659,VALID,92.7833,VALID,19.3427,VALID,149,VALID,0.00664063,
2002-08-27, 07:06:00,VALID,918.495,VALID,0,VALID,95.701,VALID,93.4625,VALID,19.3589,VALID,149,VALID,0.233041,
2002-08-27, 07:07:00,VALID,918.51,VALID,0,VALID,95.6145,VALID,91.4078,VALID,19.3782,VALID,149,VALID,0.192434,
2002-08-27, 07:08:00,VALID,918.52,VALID,0,VALID,95.7048,VALID,92.97,VALID,19.4202,VALID,149,VALID,0.0133024,
2002-08-27, 07:09:00,VALID,918.516,VALID,0,VALID,95.7251,VALID,128.918,VALID,19.4843,VALID,149,VALID,0.00420673,
2002-08-27, 07:10:00,VALID,918.52,VALID,0,VALID,95.7696,VALID,135.83,VALID,19.5524,VALID,149,VALID,0.0643029,
2002-08-27, 07:11:00,VALID,918.521,VALID,0,VALID,95.7582,VALID,136.781,VALID,19.6431,VALID,149,VALID,0.0851562,
2002-08-27, 07:12:00,VALID,918.548,VALID,0,VALID,95.6183,VALID,136.492,VALID,19.7392,VALID,149,VALID,0.0129523,
2002-08-27, 07:13:00,VALID,918.561,VALID,0,VALID,95.3691,VALID,140.482,VALID,19.8722,VALID,149,VALID,0,
2002-08-27, 07:14:00,VALID,918.577,VALID,0,VALID,95.0588,VALID,146.443,VALID,19.9857,VALID,149,VALID,0,
2002-08-27, 07:15:00,VALID,918.594,VALID,0,VALID,94.6786,VALID,152.063,VALID,20.1072,VALID,149,VALID,0,
2002-08-27, 07:16:00,VALID,918.605,VALID,0,VALID,94.1839,VALID,156.054,VALID,20.2493,VALID,149,VALID,0,
2002-08-27, 07:17:00,VALID,918.617,VALID,0,VALID,93.3256,VALID,165.665,VALID,20.3659,VALID,149,VALID,0,
2002-08-27, 07:18:00,VALID,918.625,VALID,0,VALID,92.9734,VALID,168.976,VALID,20.4787,VALID,149,VALID,0.115451,
2002-08-27, 07:19:00,VALID,918.631,VALID,0,VALID,92.405,VALID,165.954,VALID,20.602,VALID,149,VALID,0.0820313,
2002-08-27, 07:20:00,VALID,918.642,VALID,0,VALID,90.9782,VALID,163.542,VALID,20.6766,VALID,149,VALID,0.30736,
2002-08-27, 07:21:00,VALID,918.645,VALID,0,VALID,90.1326,VALID,167.363,VALID,20.6984,VALID,149,VALID,0.305078,
2002-08-27, 07:22:00,VALID,918.667,VALID,0,VALID,90.1402,VALID,164.442,VALID,20.7208,VALID,149,VALID,0.254934,
2002-08-27, 07:23:00,VALID,918.688,VALID,0,VALID,90.6349,VALID,162.676,VALID,20.7725,VALID,149,VALID,0.211143,
2002-08-27, 07:24:00,VALID,918.703,VALID,0,VALID,91.2529,VALID,181.61,VALID,20.882,VALID,149,VALID,0.146959,
2002-08-27, 07:25:00,VALID,918.721,VALID,0,VALID,90.5154,VALID,202.038,VALID,20.9725,VALID,149,VALID,0.0601128,
2002-08-27, 07:26:00,VALID,918.729,VALID,0,VALID,89.5184,VALID,217.711,VALID,21.0764,VALID,149,VALID,0.195772,
2002-08-27, 07:27:00,VALID,918.727,VALID,0,VALID,88.6499,VALID,230.481,VALID,21.1588,VALID,149,VALID,0.0509766,
2002-08-27, 07:28:00,VALID,918.735,VALID,0,VALID,88.8521,VALID,234.658,VALID,21.2846,VALID,85,VALID,0.226963,
2002-08-27, 07:29:00,VALID,918.736,VALID,0,VALID,88.6054,VALID,239.073,VALID,21.4225,VALID,40,VALID,0.4375,
2002-08-27, 07:30:00,VALID,918.724,VALID,0,VALID,88.0116,VALID,241.909,VALID,21.5803,VALID,40,VALID,0.305921,
2002-08-27, 07:31:00,VALID,918.732,VALID,0,VALID,86.815,VALID,248.192,VALID,21.7063,VALID,45,VALID,0.443216,
2002-08-27, 07:32:00,VALID,918.753,VALID,0,VALID,86.3356,VALID,227.271,VALID,21.813,VALID,49,VALID,0.703742,
2002-08-27, 07:33:00,VALID,918.756,VALID,0,VALID,86.3992,VALID,177.365,VALID,21.8582,VALID,39,VALID,0.692023,
2002-08-27, 07:34:00,VALID,918.783,VALID,0,VALID,86.4538,VALID,193.072,VALID,21.9029,VALID,6,VALID,0.803819,
2002-08-27, 07:35:00,VALID,918.813,VALID,0,VALID,86.1703,VALID,253.626,VALID,21.922,VALID,13,VALID,0.860853,
2002-08-27, 07:36:00,VALID,918.81,VALID,0,VALID,86.328,VALID,271.082,VALID,21.9511,VALID,30,VALID,0.886161,
2002-08-27, 07:37:00,VALID,918.822,VALID,0,VALID,85.8333,VALID,270.335,VALID,21.9344,VALID,34,VALID,0.649671,
2002-08-27, 07:38:00,VALID,918.826,VALID,0,VALID,85.7367,VALID,265.495,VALID,21.9508,VALID,23,VALID,0.565245,
2002-08-27, 07:39:00,VALID,918.837,VALID,0,VALID,85.8155,VALID,273.222,VALID,21.9541,VALID,22,VALID,0.320513,
2002-08-27, 07:40:00,VALID,918.862,VALID,0,VALID,85.5904,VALID,276.057,VALID,22.0052,VALID,38,VALID,0.312289,
2002-08-27, 07:41:00,VALID,918.872,VALID,0,VALID,85.7176,VALID,272.525,VALID,22.1216,VALID,38,VALID,0.389258,
2002-08-27, 07:42:00,VALID,918.906,VALID,0,VALID,85.9566,VALID,262.048,VALID,22.1986,VALID,54,VALID,0.599918,
2002-08-27, 07:43:00,VALID,918.924,VALID,0,VALID,86.1474,VALID,265.393,VALID,22.2823,VALID,63,VALID,0.499132,
2002-08-27, 07:44:00,VALID,918.946,VALID,0,VALID,85.1123,VALID,254.271,VALID,22.3499,VALID,133,VALID,0.519531,
2002-08-27, 07:45:00,VALID,918.956,VALID,0,VALID,84.1904,VALID,243.777,VALID,22.3914,VALID,153,VALID,0.442023,
2002-08-27, 07:46:00,VALID,918.979,VALID,0,VALID,83.8267,VALID,276.584,VALID,22.4037,VALID,161,VALID,0.47526,
2002-08-27, 07:47:00,VALID,918.99,VALID,0,VALID,84.1205,VALID,289.608,VALID,22.3593,VALID,137,VALID,0.689406,
2002-08-27, 07:48:00,VALID,918.996,VALID,0,VALID,85.0297,VALID,294.617,VALID,22.236,VALID,131,VALID,0.878378,
2002-08-27, 07:49:00,VALID,918.996,VALID,0,VALID,85.5942,VALID,296.231,VALID,22.1032,VALID,166,VALID,0.889597,
2002-08-27, 07:50:00,VALID,919,VALID,0,VALID,85.9516,VALID,257.616,VALID,22.0027,VALID,162,VALID,0.785156,
2002-08-27, 07:51:00,VALID,919,VALID,0,VALID,86.8252,VALID,276.584,VALID,21.9537,VALID,120,VALID,0.344727,
2002-08-27, 07:52:00,VALID,919.01,VALID,0,VALID,86.4093,VALID,288.385,VALID,21.9704,VALID,131,VALID,0.896998,
2002-08-27, 07:53:00,VALID,919.012,VALID,0,VALID,85.9376,VALID,304.347,VALID,21.8958,VALID,138,VALID,1.28187,
2002-08-27, 07:54:00,VALID,919.028,VALID,0,VALID,87.0019,VALID,319.477,VALID,21.7531,VALID,145,VALID,0.938978,
2002-08-27, 07:55:00,VALID,919.037,VALID,0,VALID,87.9035,VALID,330.617,VALID,21.6758,VALID,157,VALID,0.801215,
2002-08-27, 07:56:00,VALID,919.042,VALID,0,VALID,87.742,VALID,322.449,VALID,21.6465,VALID,151,VALID,0.8233,
2002-08-27, 07:57:00,VALID,919.037,VALID,0,VALID,88.3892,VALID,233.639,VALID,21.6626,VALID,131,VALID,0.529297,
2002-08-27, 07:58:00,VALID,919.032,VALID,0,VALID,87.4737,VALID,274.054,VALID,21.6694,VALID,146,VALID,0.950921,
2002-08-27, 07:59:00,VALID,919.032,VALID,0,VALID,87.2041,VALID,288.997,VALID,21.5816,VALID,136,VALID,0.855363,
2002-08-27, 08:00:00,VALID,919.011,VALID,0,VALID,88.0955,VALID,314.689,VALID,21.5245,VALID,127,VALID,0.713199,
2002-08-27, 08:01:00,VALID,918.992,VALID,0,VALID,87.8717,VALID,208.593,VALID,21.5118,VALID,101,VALID,0.622713,
2002-08-27, 08:02:00,VALID,918.984,VALID,0,VALID,88.8534,VALID,342.384,VALID,21.4984,VALID,154,VALID,0.2794,
2002-08-27, 08:03:00,VALID,919.015,VALID,0,VALID,88.5317,VALID,292.189,VALID,21.608,VALID,154,VALID,0.115132,
2002-08-27, 08:04:00,VALID,919.043,VALID,0,VALID,87.8183,VALID,330.175,VALID,21.7951,VALID,156,VALID,0.0553385,
2002-08-27, 08:05:00,VALID,919.073,VALID,0,VALID,86.5111,VALID,178.893,VALID,21.9731,VALID,123,VALID,0.228674,
2002-08-27, 08:06:00,VALID,919.099,VALID,0,VALID,85.3285,VALID,123.247,VALID,22.1115,VALID,28,VALID,0.890848,
2002-08-27, 08:07:00,VALID,919.115,VALID,0,VALID,84.3468,VALID,109.764,VALID,22.1467,VALID,45,VALID,0.424959,
2002-08-27, 08:08:00,VALID,919.146,VALID,0,VALID,84.4028,VALID,107.625,VALID,22.1435,VALID,45,VALID,0,
2002-08-27, 08:09:00,VALID,919.162,VALID,0,VALID,84.446,VALID,246.392,VALID,22.1726,VALID,38,VALID,0.372997,
2002-08-27, 08:10:00,VALID,919.194,VALID,0,VALID,84.048,VALID,393.751,VALID,22.1726,VALID,353,VALID,0.994932,
2002-08-27, 08:11:00,VALID,919.209,VALID,0,VALID,82.6785,VALID,325.981,VALID,22.0207,VALID,330,VALID,0.911914,
2002-08-27, 08:12:00,VALID,919.221,VALID,0,VALID,84.6444,VALID,198.659,VALID,22.0921,VALID,11,VALID,1.1398,
2002-08-27, 08:13:00,VALID,919.248,VALID,0,VALID,85.1034,VALID,292.342,VALID,22.1914,VALID,12,VALID,0.651476,
2002-08-27, 08:14:00,VALID,919.274,VALID,0,VALID,84.9686,VALID,423.349,VALID,22.373,VALID,15,VALID,0.707899,
2002-08-27, 08:15:00,VALID,919.279,VALID,0,VALID,82.784,VALID,431.16,VALID,22.5084,VALID,24,VALID,1.38446,
2002-08-27, 08:16:00,VALID,919.287,VALID,0,VALID,81.1792,VALID,435.677,VALID,22.5827,VALID,25,VALID,1.44401,
2002-08-27, 08:17:00,VALID,919.285,VALID,0,VALID,78.9361,VALID,440.109,VALID,22.6894,VALID,19,VALID,1.35747,
2002-08-27, 08:18:00,VALID,919.302,VALID,0,VALID,79.9102,VALID,444.32,VALID,22.7699,VALID,17,VALID,1.35325,
2002-08-27, 08:19:00,VALID,919.323,VALID,0,VALID,80.4557,VALID,447.751,VALID,22.8378,VALID,27,VALID,1.42989,
2002-08-27, 08:20:00,VALID,919.33,VALID,0,VALID,80.2103,VALID,457.056,VALID,22.9059,VALID,7,VALID,1.61801,
2002-08-27, 08:21:00,VALID,919.345,VALID,0,VALID,79.4511,VALID,462.337,VALID,22.883,VALID,10,VALID,1.50566,
2002-08-27, 08:22:00,VALID,919.346,VALID,0,VALID,79.1294,VALID,467.177,VALID,22.8986,VALID,347,VALID,0.817229,
2002-08-27, 08:23:00,VALID,919.362,VALID,0,VALID,78.7886,VALID,469.707,VALID,22.9412,VALID,11,VALID,2.05345,
2002-08-27, 08:24:00,VALID,919.364,VALID,0,VALID,78.7289,VALID,466.871,VALID,22.8601,VALID,25,VALID,1.10262,
2002-08-27, 08:25:00,VALID,919.376,VALID,0,VALID,79.6202,VALID,461.556,VALID,22.8727,VALID,3,VALID,1.29948,
2002-08-27, 08:26:00,VALID,919.374,VALID,0,VALID,80.3031,VALID,455.154,VALID,22.9362,VALID,18,VALID,1.46806,
2002-08-27, 08:27:00,VALID,919.385,VALID,0,VALID,79.1472,VALID,448.837,VALID,23.069,VALID,14,VALID,0.712891,
2002-08-27, 08:28:00,VALID,919.379,VALID,0,VALID,77.7052,VALID,444.983,VALID,23.1757,VALID,2,VALID,1.08714,
2002-08-27, 08:29:00,VALID,919.394,VALID,0,VALID,76.9893,VALID,444.253,VALID,23.2077,VALID,306,VALID,0.529772,
2002-08-27, 08:30:00,VALID,919.397,VALID,0,VALID,78.0981,VALID,433.385,VALID,23.2491,VALID,337,VALID,0.896587,
2002-08-27, 08:31:00,VALID,919.413,VALID,0,VALID,79.3341,VALID,443.302,VALID,23.3235,VALID,33,VALID,1.70027,
2002-08-27, 08:32:00,VALID,919.437,VALID,0,VALID,77.4572,VALID,449.584,VALID,23.3749,VALID,18,VALID,1.68072,
2002-08-27, 08:33:00,VALID,919.451,VALID,0,VALID,77.9252,VALID,468.875,VALID,23.31,VALID,22,VALID,1.77508,
2002-08-27, 08:34:00,VALID,919.462,VALID,0,VALID,78.0778,VALID,463.628,VALID,23.2935,VALID,18,VALID,1.85677,
2002-08-27, 08:35:00,VALID,919.458,VALID,0,VALID,78.7848,VALID,472.22,VALID,23.2491,VALID,21,VALID,1.43623,
2002-08-27, 08:36:00,VALID,919.475,VALID,0,VALID,79.2464,VALID,487.078,VALID,23.2292,VALID,351,VALID,1.23504,
2002-08-27, 08:37:00,VALID,919.482,VALID,0,VALID,80.0284,VALID,489.354,VALID,23.2297,VALID,8,VALID,1.6215,
2002-08-27, 08:38:00,VALID,919.499,VALID,0,VALID,79.0111,VALID,479.386,VALID,23.2127,VALID,327,VALID,1.22867,
2002-08-27, 08:39:00,VALID,919.505,VALID,0,VALID,79.2973,VALID,435.643,VALID,23.0444,VALID,329,VALID,0.947716,
2002-08-27, 08:40:00,VALID,919.482,VALID,0,VALID,80.1937,VALID,315.657,VALID,23.2027,VALID,360,VALID,1.08361,
2002-08-27, 08:41:00,VALID,919.473,VALID,0,VALID,77.1317,VALID,365.801,VALID,23.1642,VALID,321,VALID,0.9875,
2002-08-27, 08:42:00,VALID,919.461,VALID,0,VALID,78.7123,VALID,378.673,VALID,23.0702,VALID,334,VALID,0.692845,
2002-08-27, 08:43:00,VALID,919.455,VALID,0,VALID,79.1714,VALID,488.946,VALID,23.0732,VALID,297,VALID,0.318793,
2002-08-27, 08:44:00,VALID,919.459,VALID,0,VALID,79.0035,VALID,517.134,VALID,23.1478,VALID,273,VALID,0.639757,
2002-08-27, 08:45:00,VALID,919.443,VALID,0,VALID,76.9435,VALID,521.702,VALID,23.0373,VALID,299,VALID,0.667352,
2002-08-27, 08:46:00,VALID,919.451,VALID,0,VALID,77.2856,VALID,514.842,VALID,23.0435,VALID,7,VALID,0.364583,
2002-08-27, 08:47:00,VALID,919.456,VALID,0,VALID,76.7884,VALID,405.078,VALID,23.3314,VALID,345,VALID,0.250762,
2002-08-27, 08:48:00,VALID,919.485,VALID,0,VALID,77.2322,VALID,342.962,VALID,23.3731,VALID,280,VALID,0.806166,
2002-08-27, 08:49:00,VALID,919.51,VALID,0,VALID,77.6226,VALID,506.963,VALID,23.2762,VALID,244,VALID,0.793174,
2002-08-27, 08:50:00,VALID,919.522,VALID,0,VALID,78.5788,VALID,512.787,VALID,23.1919,VALID,259,VALID,0.938528,
2002-08-27, 08:51:00,VALID,919.525,VALID,0,VALID,78.9145,VALID,489.303,VALID,23.1692,VALID,219,VALID,0.714844,
2002-08-27, 08:52:00,VALID,919.533,VALID,0,VALID,78.8725,VALID,501.767,VALID,23.2442,VALID,239,VALID,0.480674,
2002-08-27, 08:53:00,VALID,919.542,VALID,0,VALID,79.2718,VALID,499.984,VALID,23.292,VALID,253,VALID,0.544819,
2002-08-27, 08:54:00,VALID,919.539,VALID,0,VALID,76.9524,VALID,474.258,VALID,23.3534,VALID,257,VALID,0.642525,
